This is the latest recevied weather packets stored in our database for station/object KA3ZXO. If no packets are shown the sender has not sent any weather packets the latest 10 day(s).
| Time | Temp. | Humidity | Pressure | Rain* | Wind** | Luminosity | Snow |
|---|---|---|---|---|---|---|---|
| 1777733840 | 12.22° C | 62% | 1014.1 hPa | 0 mm | - | 97 W/m² | - |
| 1777733239 | 12.22° C | 62% | 1013.8 hPa | 0 mm | - | 113 W/m² | - |
| 1777732638 | 12.22° C | 61% | 1013.7 hPa | 0 mm | - | 127 W/m² | - |
| 1777732033 | 12.22° C | 62% | 1013.7 hPa | 0 mm | - | 95 W/m² | - |
| 1777731432 | 11.67° C | 63% | 1013.6 hPa | 0 mm | - | 89 W/m² | - |
| 1777730227 | 11.67° C | 62% | 1013.6 hPa | 0 mm | - | 85 W/m² | - |
| 1777729626 | 11.11° C | 63% | 1013.6 hPa | 0 mm | - | 75 W/m² | - |
| 1777729025 | 11.67° C | 62% | 1013.6 hPa | 0 mm | - | 87 W/m² | - |
| 1777728424 | 11.11° C | 62% | 1013.4 hPa | 0 mm | - | 77 W/m² | - |
| 1777727824 | 11.11° C | 62% | 1013.4 hPa | 0 mm | - | 62 W/m² | - |
| 1777727224 | 11.67° C | 62% | 1013.7 hPa | 0 mm | - | 76 W/m² | - |
| 1777726624 | 11.67° C | 66% | 1013.8 hPa | 0 mm | - | 80 W/m² | - |
| 1777726018 | 11.11° C | 65% | 1013.5 hPa | 0 mm | - | 67 W/m² | - |
| 1777725413 | 11.11° C | 67% | 1013.6 hPa | 0 mm | - | 46 W/m² | - |
| 1777724812 | 11.11° C | 69% | 1013.5 hPa | 0 mm | - | 43 W/m² | - |
| 1777724207 | 11.11° C | 69% | 1013.4 hPa | 0 mm | - | 31 W/m² | - |
| 1777723607 | 11.11° C | 68% | 1013.7 hPa | 0 mm | - | 40 W/m² | - |
| 1777723002 | 11.11° C | 69% | 1013.6 hPa | 0 mm | - | 35 W/m² | - |
| 1777722399 | 11.11° C | 69% | 1013.6 hPa | 0 mm | - | 31 W/m² | - |
| 1777721794 | 11.11° C | 69% | 1013.6 hPa | 0 mm | - | 24 W/m² | - |
| 1777721190 | 11.11° C | 70% | 1013.6 hPa | 0 mm | - | 20 W/m² | - |
| 1777720591 | 11.11° C | 70% | 1013.5 hPa | 0 mm | - | 15 W/m² | - |
| 1777719986 | 11.67° C | 69% | 1013.5 hPa | 0 mm | - | 13 W/m² | - |
| 1777719380 | 11.67° C | 72% | 1013.2 hPa | 0 mm | - | 12 W/m² | - |
| 1777718780 | 11.11° C | 73% | 1013.3 hPa | 0 mm | - | 10 W/m² | - |
* Rain latest hour (hover to see other rain measurements)
** Current wind speed in m/s (hover to see current wind gust speed)